Tracking 30703 objects as of 14-Jun-2025
HD Live streaming from Space Station
objects crossing your sky now

LEASAT 5 PKM (SSUS-A)

Track LEASAT 5 PKM (SSUS-A) now!
10-day predictions


NORAD ID: 20411
Int'l Code: 1990-002C
Perigee: 222.0 km
Apogee: 9,697.8 km
Inclination: 27.3 °
Period: 200.1 minutes
Semi major axis: 11330 km
RCS: 3.708 m2 (large)
Launch date: January 9, 1990
Source: United States (US)
Launch site: AIR FORCE EASTERN TEST RANGE (AFETR)

Note: This is a ROCKET BODY
Your satellite tracking list
Your tracking list is empty




NASA's NSSDC Master Catalog

Two Line Element Set (TLE):
1 20411U 90002C   25164.73969181  .00113135  00000-0  21378-2 0  9998
2 20411  27.2881 328.8637 4181389 163.2561 216.4111  7.19787292710144
Source of the keplerian elements: AFSPC